Language: 


Des rapports , des résumés tant et plus, au choix de chacun....


Données Historiques de Météogheer
Journalier Rapport pour Janvier 31, 2018 Unitée:  Métrique    Impériale   Les deux
Suivant Jour »
Journalier Hebdomadaire Mensuel Annuel Sur mesure
  Max: Min: Moyenne:
Température: 10.1 °C 1.8 °C 7.8 °C
Point de rosée: 10.0 °C 0.0 °C 7.3 °C
Humidité: 98% 81% 95%
Vent: 53.6km/h 0.0km/h 17.8km/h
Rafales: 53.6km/h - -
Vent- - WSW
Pression: 1018.2 hPa 1000.9 hPa -
Pluie: 8.4 mm    
Historical Graphs
 
 
Données tabulaires pour Janvier 31, 2018
Heure Température Point de rosée Pression Vent Vent Rafales Humidité Pluie Taux (Horaire) Conditions
00:00 9.3 °C 9.0 °C 1018.2 hPa SSW 9.7 km/h 16.6 km/h 98% 0.0 mm
00:05 9.3 °C 9.0 °C 1018.2 hPa SW 9.0 km/h 16.6 km/h 98% 0.0 mm
00:10 9.4 °C 9.0 °C 1018.2 hPa SSW 12.6 km/h 14.0 km/h 98% 0.0 mm
00:15 9.4 °C 9.0 °C 1016.8 hPa SW 11.9 km/h 14.0 km/h 98% 0.0 mm
00:20 9.4 °C 9.0 °C 1016.8 hPa SW 12.2 km/h 16.3 km/h 98% 0.0 mm
00:25 9.5 °C 10.0 °C 1016.8 hPa SW 14.0 km/h 17.7 km/h 98% 0.0 mm
00:30 9.6 °C 10.0 °C 1016.1 hPa South 9.0 km/h 17.7 km/h 98% 0.0 mm
00:35 9.6 °C 10.0 °C 1016.1 hPa SSW 10.1 km/h 17.7 km/h 98% 0.0 mm
00:40 9.7 °C 10.0 °C 1016.1 hPa WSW 14.0 km/h 20.1 km/h 98% 0.0 mm
00:45 9.8 °C 10.0 °C 1016.8 hPa WSW 13.0 km/h 20.9 km/h 98% 0.0 mm
00:50 9.8 °C 10.0 °C 1016.8 hPa SW 15.8 km/h 20.9 km/h 98% 0.0 mm
00:56 9.9 °C 10.0 °C 1016.8 hPa SW 20.1 km/h 20.9 km/h 98% 0.0 mm
01:01 9.9 °C 10.0 °C 1016.8 hPa SW 16.9 km/h 23.3 km/h 98% 0.0 mm
01:06 10.0 °C 10.0 °C 1016.8 hPa WSW 16.6 km/h 25.3 km/h 98% 0.0 mm
01:11 10.0 °C 10.0 °C 1016.8 hPa WSW 14.8 km/h 25.3 km/h 98% 0.0 mm
01:16 10.0 °C 10.0 °C 1016.1 hPa SW 20.1 km/h 23.0 km/h 98% 0.0 mm
01:21 10.0 °C 10.0 °C 1016.1 hPa SW 16.6 km/h 23.0 km/h 98% 0.0 mm
01:26 10.0 °C 10.0 °C 1016.1 hPa WSW 17.7 km/h 22.7 km/h 98% 0.0 mm
01:31 10.0 °C 10.0 °C 1016.1 hPa WSW 21.6 km/h 25.9 km/h 98% 0.0 mm
01:36 10.0 °C 10.0 °C 1016.1 hPa WSW 20.9 km/h 25.9 km/h 98% 0.0 mm
01:41 10.0 °C 10.0 °C 1016.1 hPa WSW 14.0 km/h 23.0 km/h 98% 0.0 mm
01:46 10.0 °C 10.0 °C 1015.1 hPa WSW 12.2 km/h 23.8 km/h 98% 0.0 mm
01:51 10.1 °C 10.0 °C 1015.1 hPa WSW 18.0 km/h 27.0 km/h 98% 0.0 mm
01:56 10.1 °C 10.0 °C 1015.1 hPa WSW 20.9 km/h 27.0 km/h 98% 0.0 mm
02:01 10.1 °C 10.0 °C 1014.1 hPa WSW 13.0 km/h 24.8 km/h 98% 0.0 mm
02:06 10.1 °C 10.0 °C 1014.1 hPa WSW 19.8 km/h 24.8 km/h 98% 0.3 mm
02:11 10.1 °C 10.0 °C 1014.1 hPa WSW 16.9 km/h 27.4 km/h 98% 0.3 mm
02:16 10.1 °C 10.0 °C 1015.1 hPa WSW 16.6 km/h 28.0 km/h 98% 0.3 mm
02:21 10.1 °C 10.0 °C 1015.1 hPa SSW 19.8 km/h 28.5 km/h 98% 0.3 mm
02:26 10.1 °C 10.0 °C 1015.1 hPa West 17.2 km/h 31.4 km/h 98% 0.3 mm
02:31 10.1 °C 10.0 °C 1015.1 hPa WSW 21.2 km/h 31.4 km/h 98% 0.3 mm
02:36 10.1 °C 10.0 °C 1015.1 hPa WSW 23.3 km/h 30.9 km/h 98% 0.3 mm
02:41 10.0 °C 10.0 °C 1015.1 hPa WSW 16.9 km/h 28.5 km/h 98% 0.3 mm
02:46 10.0 °C 10.0 °C 1015.1 hPa WSW 20.1 km/h 36.0 km/h 98% 0.3 mm
02:51 10.0 °C 10.0 °C 1015.1 hPa SW 20.6 km/h 36.0 km/h 98% 0.3 mm
02:56 10.0 °C 10.0 °C 1015.1 hPa WSW 17.2 km/h 31.4 km/h 98% 0.3 mm
03:01 9.9 °C 10.0 °C 1014.1 hPa WSW 16.6 km/h 28.0 km/h 98% 0.3 mm
03:06 9.9 °C 10.0 °C 1014.1 hPa WSW 20.1 km/h 28.0 km/h 98% 0.0 mm
03:11 9.9 °C 10.0 °C 1014.1 hPa SSW 19.8 km/h 31.7 km/h 98% 0.0 mm
03:16 9.9 °C 10.0 °C 1014.1 hPa WSW 30.6 km/h 31.7 km/h 98% 0.0 mm
03:21 9.9 °C 10.0 °C 1014.1 hPa WSW 19.8 km/h 31.4 km/h 98% 0.0 mm
03:27 9.9 °C 10.0 °C 1014.1 hPa WSW 27.4 km/h 31.4 km/h 98% 0.0 mm
03:32 9.9 °C 10.0 °C 1013.1 hPa SW 17.7 km/h 32.0 km/h 98% 0.0 mm
03:37 9.9 °C 10.0 °C 1013.1 hPa WSW 20.1 km/h 32.0 km/h 98% 0.0 mm
03:42 9.9 °C 10.0 °C 1013.1 hPa SW 20.9 km/h 28.0 km/h 98% 0.3 mm
03:47 9.9 °C 10.0 °C 1013.1 hPa WSW 15.1 km/h 26.2 km/h 98% 0.3 mm
03:52 9.8 °C 10.0 °C 1013.1 hPa SSW 23.0 km/h 24.8 km/h 98% 0.3 mm
03:57 9.8 °C 10.0 °C 1013.1 hPa WSW 23.8 km/h 31.7 km/h 98% 0.3 mm
04:02 9.9 °C 10.0 °C 1013.1 hPa SSW 20.9 km/h 32.0 km/h 98% 0.3 mm
04:07 9.9 °C 10.0 °C 1013.1 hPa WSW 16.3 km/h 36.7 km/h 98% 0.3 mm
04:12 9.9 °C 10.0 °C 1013.1 hPa SW 23.8 km/h 37.0 km/h 98% 0.3 mm
04:17 9.9 °C 10.0 °C 1013.1 hPa SSW 16.6 km/h 37.0 km/h 98% 0.3 mm
04:22 9.9 °C 10.0 °C 1013.1 hPa WSW 17.2 km/h 36.7 km/h 98% 0.3 mm
04:27 9.9 °C 10.0 °C 1013.1 hPa WSW 24.5 km/h 29.9 km/h 98% 0.3 mm
04:32 9.9 °C 10.0 °C 1012.1 hPa SW 20.1 km/h 29.9 km/h 98% 0.3 mm
04:37 9.9 °C 10.0 °C 1012.1 hPa WSW 16.6 km/h 35.2 km/h 98% 0.0 mm
04:42 9.9 °C 10.0 °C 1012.1 hPa SW 20.9 km/h 35.2 km/h 98% 0.0 mm
04:47 9.9 °C 10.0 °C 1011.1 hPa SSW 25.3 km/h 35.2 km/h 98% 0.0 mm
04:52 9.9 °C 10.0 °C 1011.1 hPa SSW 30.2 km/h 38.9 km/h 98% 0.0 mm
04:57 9.9 °C 10.0 °C 1011.1 hPa SW 27.4 km/h 38.9 km/h 98% 0.0 mm
05:02 9.9 °C 10.0 °C 1011.1 hPa WSW 20.6 km/h 37.8 km/h 98% 0.0 mm
05:07 9.9 °C 10.0 °C 1011.1 hPa WSW 23.3 km/h 37.8 km/h 98% 0.0 mm
05:12 9.9 °C 10.0 °C 1011.1 hPa SW 20.6 km/h 35.2 km/h 98% 0.0 mm
05:18 9.9 °C 10.0 °C 1011.1 hPa WSW 17.2 km/h 35.2 km/h 98% 0.0 mm
05:23 9.9 °C 10.0 °C 1011.1 hPa SW 14.8 km/h 28.8 km/h 98% 0.0 mm
05:28 9.9 °C 10.0 °C 1011.1 hPa SSW 14.8 km/h 24.5 km/h 98% 0.0 mm
05:33 9.9 °C 10.0 °C 1011.1 hPa SSW 28.0 km/h 32.0 km/h 98% 0.0 mm
05:38 9.9 °C 10.0 °C 1011.1 hPa SW 16.3 km/h 32.0 km/h 98% 0.0 mm
05:43 9.9 °C 10.0 °C 1011.1 hPa SW 21.2 km/h 26.2 km/h 98% 0.0 mm
05:48 9.9 °C 10.0 °C 1011.1 hPa WSW 28.0 km/h 36.7 km/h 98% 0.0 mm
05:53 9.9 °C 10.0 °C 1011.1 hPa WSW 29.1 km/h 36.7 km/h 98% 0.0 mm
05:58 9.9 °C 10.0 °C 1011.1 hPa WSW 27.7 km/h 29.9 km/h 98% 0.0 mm
06:03 9.9 °C 10.0 °C 1011.1 hPa South 28.8 km/h 29.1 km/h 98% 0.0 mm
06:08 9.9 °C 10.0 °C 1011.1 hPa WSW 29.9 km/h 32.0 km/h 98% 0.0 mm
06:13 9.8 °C 10.0 °C 1011.1 hPa WSW 17.7 km/h 35.6 km/h 98% 0.0 mm
06:18 9.8 °C 10.0 °C 1010.0 hPa WSW 17.7 km/h 35.6 km/h 98% 0.0 mm
06:23 9.8 °C 10.0 °C 1010.0 hPa SW 24.8 km/h 36.4 km/h 98% 0.0 mm
06:28 9.8 °C 10.0 °C 1010.0 hPa WSW 20.9 km/h 36.4 km/h 98% 0.0 mm
06:33 9.9 °C 10.0 °C 1010.0 hPa SW 16.6 km/h 29.1 km/h 98% 0.0 mm
06:38 9.9 °C 10.0 °C 1010.0 hPa SW 21.2 km/h 39.3 km/h 98% 0.0 mm
06:43 9.9 °C 10.0 °C 1010.0 hPa SSW 20.1 km/h 39.3 km/h 98% 0.0 mm
06:48 9.9 °C 10.0 °C 1010.0 hPa SSW 30.9 km/h 32.8 km/h 98% 0.0 mm
06:53 9.9 °C 10.0 °C 1010.0 hPa WSW 21.2 km/h 31.7 km/h 98% 0.0 mm
06:58 9.9 °C 10.0 °C 1010.0 hPa WSW 20.1 km/h 28.5 km/h 98% 0.3 mm
07:03 9.9 °C 10.0 °C 1010.0 hPa SSW 23.0 km/h 28.5 km/h 98% 0.3 mm
07:08 9.8 °C 10.0 °C 1010.0 hPa WSW 24.5 km/h 28.0 km/h 98% 0.3 mm
07:13 9.8 °C 10.0 °C 1010.0 hPa SW 16.6 km/h 27.7 km/h 98% 0.3 mm
07:18 9.8 °C 10.0 °C 1010.0 hPa WSW 17.2 km/h 24.8 km/h 98% 0.3 mm
07:23 9.8 °C 10.0 °C 1010.0 hPa SSW 28.5 km/h 28.5 km/h 98% 0.3 mm
07:29 9.8 °C 10.0 °C 1009.0 hPa SW 29.1 km/h 29.1 km/h 98% 0.3 mm
07:34 9.8 °C 10.0 °C 1009.0 hPa SW 24.5 km/h 31.7 km/h 98% 0.3 mm
07:39 9.8 °C 10.0 °C 1009.0 hPa WSW 24.8 km/h 31.7 km/h 98% 0.3 mm
07:44 9.8 °C 10.0 °C 1009.0 hPa SSW 16.9 km/h 35.6 km/h 98% 0.3 mm
07:49 9.8 °C 10.0 °C 1009.0 hPa SW 16.3 km/h 35.6 km/h 98% 0.3 mm
07:54 9.8 °C 10.0 °C 1009.0 hPa WSW 19.8 km/h 31.4 km/h 98% 0.0 mm
07:59 9.7 °C 10.0 °C 1008.0 hPa WSW 21.6 km/h 27.7 km/h 98% 0.0 mm
08:04 9.7 °C 10.0 °C 1008.0 hPa WSW 19.8 km/h 28.5 km/h 98% 0.0 mm
08:09 9.7 °C 10.0 °C 1008.0 hPa SSW 23.8 km/h 28.5 km/h 98% 0.0 mm
08:14 9.6 °C 10.0 °C 1008.0 hPa WSW 20.1 km/h 28.5 km/h 98% 0.0 mm
08:19 9.6 °C 10.0 °C 1009.0 hPa SW 20.9 km/h 31.7 km/h 98% 0.3 mm
08:24 9.6 °C 10.0 °C 1009.0 hPa SW 20.6 km/h 31.7 km/h 98% 0.3 mm
08:29 9.6 °C 10.0 °C 1009.0 hPa WSW 21.2 km/h 30.6 km/h 98% 0.3 mm
08:34 9.6 °C 10.0 °C 1009.0 hPa SSW 23.0 km/h 24.8 km/h 98% 0.3 mm
08:39 9.5 °C 10.0 °C 1009.0 hPa SSW 12.6 km/h 23.8 km/h 98% 0.3 mm
08:44 9.5 °C 10.0 °C 1009.0 hPa WSW 19.5 km/h 31.4 km/h 98% 0.3 mm
08:49 9.5 °C 10.0 °C 1009.0 hPa SSW 15.1 km/h 31.4 km/h 98% 0.3 mm
08:54 9.4 °C 9.0 °C 1009.0 hPa SSW 28.0 km/h 28.0 km/h 98% 0.3 mm
08:56 9.4 °C 9.0 °C 1009.0 hPa WSW 16.6 km/h 28.0 km/h 98% 0.3 mm
09:01 9.4 °C 9.0 °C 1008.0 hPa SW 13.0 km/h 28.0 km/h 98% 0.3 mm
09:06 9.4 °C 9.0 °C 1008.0 hPa WSW 21.9 km/h 28.8 km/h 98% 0.3 mm
09:11 9.4 °C 9.0 °C 1008.0 hPa SSW 16.3 km/h 28.8 km/h 98% 0.3 mm
09:16 9.4 °C 9.0 °C 1008.0 hPa SW 19.8 km/h 23.8 km/h 98% 0.3 mm
09:21 9.4 °C 9.0 °C 1008.0 hPa SSW 17.2 km/h 23.8 km/h 98% 0.0 mm
09:26 9.4 °C 9.0 °C 1008.0 hPa WSW 13.7 km/h 23.3 km/h 98% 0.0 mm
09:31 9.4 °C 9.0 °C 1008.0 hPa SW 13.7 km/h 26.2 km/h 98% 0.3 mm
09:36 9.4 °C 9.0 °C 1008.0 hPa WSW 22.4 km/h 26.2 km/h 98% 0.3 mm
09:41 9.4 °C 9.0 °C 1008.0 hPa SW 20.9 km/h 24.8 km/h 98% 0.3 mm
09:46 9.4 °C 9.0 °C 1007.0 hPa WSW 21.9 km/h 23.3 km/h 98% 0.8 mm
09:51 9.4 °C 9.0 °C 1007.0 hPa WSW 27.7 km/h 27.7 km/h 98% 0.8 mm
09:56 9.4 °C 9.0 °C 1007.0 hPa WSW 21.6 km/h 48.3 km/h 98% 0.8 mm
10:01 9.4 °C 9.0 °C 1007.0 hPa SW 21.2 km/h 48.3 km/h 98% 0.8 mm
10:07 9.4 °C 9.0 °C 1007.0 hPa WNW 20.6 km/h 24.8 km/h 98% 0.8 mm
10:12 9.4 °C 9.0 °C 1007.0 hPa WSW 11.1 km/h 24.8 km/h 98% 1.0 mm
10:17 9.4 °C 9.0 °C 1007.0 hPa West 29.9 km/h 29.9 km/h 98% 1.3 mm
10:22 9.2 °C 9.0 °C 1007.0 hPa WSW 36.4 km/h 43.6 km/h 98% 1.5 mm
10:27 9.2 °C 9.0 °C 1007.0 hPa West 24.8 km/h 43.6 km/h 98% 1.3 mm
10:32 9.2 °C 9.0 °C 1007.0 hPa WSW 24.8 km/h 33.5 km/h 98% 1.3 mm
10:37 9.2 °C 9.0 °C 1007.0 hPa WSW 37.0 km/h 37.0 km/h 98% 1.3 mm
10:42 9.2 °C 9.0 °C 1007.0 hPa WSW 32.0 km/h 37.0 km/h 98% 1.3 mm
10:47 9.2 °C 9.0 °C 1007.0 hPa WSW 21.9 km/h 37.0 km/h 98% 0.8 mm
10:52 9.3 °C 9.0 °C 1007.0 hPa WSW 28.0 km/h 32.0 km/h 98% 0.8 mm
10:57 9.3 °C 9.0 °C 1007.0 hPa WSW 20.6 km/h 35.6 km/h 98% 0.8 mm
11:02 9.3 °C 9.0 °C 1007.0 hPa WSW 20.9 km/h 35.6 km/h 98% 0.8 mm
11:07 9.3 °C 9.0 °C 1007.0 hPa WSW 31.4 km/h 32.0 km/h 98% 0.8 mm
11:12 9.3 °C 9.0 °C 1007.0 hPa WSW 25.6 km/h 31.4 km/h 98% 0.8 mm
11:17 9.3 °C 9.0 °C 1007.0 hPa SW 28.5 km/h 31.4 km/h 98% 0.5 mm
11:22 9.2 °C 9.0 °C 1007.0 hPa WSW 22.4 km/h 41.7 km/h 98% 0.3 mm
11:27 9.1 °C 9.0 °C 1007.0 hPa WSW 53.6 km/h 53.6 km/h 98% 0.5 mm
11:32 9.0 °C 9.0 °C 1007.0 hPa WSW 53.6 km/h 53.6 km/h 98% 1.0 mm
11:37 8.9 °C 9.0 °C 1007.0 hPa West 38.1 km/h 53.6 km/h 98% 1.0 mm
11:42 8.9 °C 9.0 °C 1007.0 hPa West 38.1 km/h 53.6 km/h 98% 1.3 mm
11:47 8.8 °C 9.0 °C 1007.0 hPa West 23.0 km/h 38.1 km/h 98% 1.3 mm
11:52 8.8 °C 9.0 °C 1007.0 hPa WSW 24.5 km/h 38.1 km/h 98% 1.5 mm
11:57 8.8 °C 9.0 °C 1007.0 hPa West 42.5 km/h 42.5 km/h 98% 1.8 mm
12:02 8.8 °C 9.0 °C 1006.0 hPa WSW 37.8 km/h 45.7 km/h 98% 2.3 mm
12:07 8.7 °C 9.0 °C 1006.0 hPa WSW 21.6 km/h 45.7 km/h 98% 2.5 mm
12:12 8.6 °C 9.0 °C 1006.0 hPa West 26.2 km/h 39.3 km/h 98% 2.3 mm
12:17 8.6 °C 9.0 °C 1006.0 hPa WSW 25.6 km/h 33.8 km/h 98% 2.5 mm
12:22 8.6 °C 9.0 °C 1006.0 hPa WSW 30.9 km/h 31.4 km/h 98% 2.8 mm
12:27 8.6 °C 9.0 °C 1006.0 hPa WSW 28.5 km/h 35.2 km/h 98% 2.5 mm
12:32 8.5 °C 9.0 °C 1006.0 hPa WSW 36.0 km/h 39.3 km/h 98% 2.5 mm
12:38 8.5 °C 9.0 °C 1006.0 hPa WSW 36.0 km/h 39.3 km/h 98% 2.5 mm
12:43 8.5 °C 9.0 °C 1006.0 hPa WSW 36.0 km/h 36.0 km/h 98% 2.5 mm
12:48 8.3 °C 9.0 °C 1005.0 hPa WSW 36.0 km/h 36.0 km/h 98% 2.5 mm
12:53 8.3 °C 8.0 °C 1005.0 hPa WSW 36.0 km/h 36.0 km/h 97% 2.3 mm
12:58 8.2 °C 8.0 °C 1005.0 hPa WSW 36.0 km/h 36.0 km/h 98% 2.3 mm
13:03 8.2 °C 8.0 °C 1003.9 hPa WSW 36.0 km/h 36.0 km/h 98% 1.8 mm
13:08 8.2 °C 8.0 °C 1003.9 hPa WSW 36.0 km/h 36.0 km/h 98% 1.5 mm
13:13 8.1 °C 8.0 °C 1003.9 hPa WSW 36.0 km/h 36.0 km/h 98% 1.8 mm
13:18 8.1 °C 8.0 °C 1005.0 hPa WSW 36.0 km/h 36.0 km/h 98% 1.5 mm
13:23 8.1 °C 8.0 °C 1005.0 hPa WSW 36.0 km/h 36.0 km/h 98% 1.3 mm
13:28 8.1 °C 8.0 °C 1005.0 hPa WSW 36.0 km/h 36.0 km/h 98% 1.3 mm
13:33 8.1 °C 8.0 °C 1005.0 hPa WSW 36.0 km/h 36.0 km/h 98% 0.8 mm
13:38 8.1 °C 8.0 °C 1005.0 hPa WSW 36.0 km/h 36.0 km/h 97% 0.8 mm
13:43 8.1 °C 8.0 °C 1005.0 hPa WSW 36.0 km/h 36.0 km/h 96% 0.5 mm
13:48 8.1 °C 8.0 °C 1003.9 hPa WSW 36.0 km/h 36.0 km/h 96% 0.5 mm
13:53 8.1 °C 8.0 °C 1003.9 hPa WSW 36.0 km/h 36.0 km/h 95% 0.5 mm
13:58 8.1 °C 7.0 °C 1003.9 hPa WSW 36.0 km/h 36.0 km/h 94% 0.3 mm
14:03 8.1 °C 7.0 °C 1002.9 hPa WSW 36.0 km/h 36.0 km/h 94% 0.3 mm
14:08 8.1 °C 7.0 °C 1002.9 hPa WSW 36.0 km/h 36.0 km/h 92% 0.3 mm
14:13 8.2 °C 7.0 °C 1002.9 hPa WSW 36.0 km/h 36.0 km/h 91% 0.0 mm
14:18 8.3 °C 7.0 °C 1002.9 hPa WSW 36.0 km/h 36.0 km/h 90% 0.0 mm
14:23 8.3 °C 7.0 °C 1002.9 hPa WSW 36.0 km/h 36.0 km/h 90% 0.0 mm
14:26 8.3 °C 7.0 °C 1002.9 hPa WSW 36.0 km/h 36.0 km/h 89% 0.0 mm
14:31 8.3 °C 7.0 °C 1002.9 hPa WSW 16.3 km/h 16.3 km/h 88% 0.0 mm
14:36 8.3 °C 7.0 °C 1002.9 hPa WSW 16.3 km/h 16.3 km/h 87% 0.0 mm
14:41 8.3 °C 6.0 °C 1002.9 hPa WSW 16.3 km/h 16.3 km/h 86% 0.0 mm
14:46 8.3 °C 6.0 °C 1001.9 hPa WSW 16.3 km/h 16.3 km/h 86% 0.0 mm
14:51 8.4 °C 6.0 °C 1001.9 hPa WSW 19.1 km/h 19.1 km/h 86% 0.0 mm
14:57 8.4 °C 6.0 °C 1001.9 hPa WSW 19.1 km/h 19.1 km/h 85% 0.0 mm
15:02 8.5 °C 7.0 °C 1002.9 hPa WSW 19.1 km/h 19.1 km/h 86% 0.0 mm
15:07 8.5 °C 7.0 °C 1002.9 hPa WSW 19.1 km/h 19.1 km/h 86% 0.0 mm
15:12 8.5 °C 7.0 °C 1002.9 hPa WSW 19.1 km/h 19.1 km/h 86% 0.0 mm
15:17 8.7 °C 7.0 °C 1001.9 hPa WSW 19.1 km/h 19.1 km/h 86% 0.0 mm
15:22 8.8 °C 7.0 °C 1001.9 hPa WSW 19.1 km/h 19.1 km/h 86% 0.0 mm
15:27 8.8 °C 7.0 °C 1001.9 hPa WSW 19.1 km/h 19.1 km/h 86% 0.0 mm
15:32 8.8 °C 7.0 °C 1001.9 hPa WSW 19.1 km/h 19.1 km/h 86% 0.0 mm
15:37 8.7 °C 7.0 °C 1001.9 hPa WSW 19.1 km/h 19.1 km/h 87% 0.0 mm
15:42 8.6 °C 7.0 °C 1001.9 hPa WSW 19.1 km/h 19.1 km/h 88% 0.0 mm
15:47 8.4 °C 7.0 °C 1001.9 hPa WSW 19.1 km/h 19.1 km/h 90% 0.3 mm
15:52 8.2 °C 7.0 °C 1001.9 hPa WSW 19.5 km/h 24.8 km/h 92% 0.5 mm
15:57 8.1 °C 7.0 °C 1001.9 hPa WSW 19.5 km/h 24.8 km/h 94% 0.8 mm
16:02 8.1 °C 7.0 °C 1001.9 hPa West 17.7 km/h 35.2 km/h 94% 1.3 mm
16:07 8.0 °C 8.0 °C 1001.9 hPa West 17.7 km/h 35.2 km/h 95% 1.3 mm
16:12 7.9 °C 7.0 °C 1001.9 hPa West 17.7 km/h 17.7 km/h 95% 1.3 mm
16:17 7.7 °C 7.0 °C 1001.9 hPa West 17.7 km/h 17.7 km/h 95% 1.3 mm
16:23 7.4 °C 7.0 °C 1001.9 hPa West 17.7 km/h 17.7 km/h 95% 1.3 mm
16:28 7.3 °C 6.0 °C 1001.9 hPa West 17.7 km/h 17.7 km/h 94% 1.3 mm
16:33 7.1 °C 6.0 °C 1001.9 hPa West 17.7 km/h 17.7 km/h 94% 1.3 mm
16:38 6.9 °C 6.0 °C 1001.9 hPa North 4.7 km/h 4.7 km/h 95% 1.3 mm
16:43 6.8 °C 6.0 °C 1001.9 hPa North 4.7 km/h 4.7 km/h 95% 1.3 mm
16:48 6.8 °C 6.0 °C 1001.9 hPa North 4.7 km/h 4.7 km/h 95% 1.0 mm
16:53 6.7 °C 6.0 °C 1001.9 hPa North 4.7 km/h 4.7 km/h 95% 0.8 mm
16:58 6.6 °C 6.0 °C 1001.9 hPa North 4.7 km/h 4.7 km/h 95% 0.3 mm
17:03 6.5 °C 6.0 °C 1000.9 hPa North 4.7 km/h 4.7 km/h 95% 0.0 mm
17:08 6.4 °C 6.0 °C 1000.9 hPa North 4.7 km/h 4.7 km/h 96% 0.0 mm
17:13 6.4 °C 6.0 °C 1000.9 hPa North 4.7 km/h 4.7 km/h 96% 0.0 mm
17:18 6.4 °C 6.0 °C 1000.9 hPa North 4.7 km/h 4.7 km/h 96% 0.0 mm
17:23 6.3 °C 6.0 °C 1000.9 hPa North 4.7 km/h 4.7 km/h 96% 0.0 mm
17:28 6.2 °C 6.0 °C 1000.9 hPa North 4.7 km/h 4.7 km/h 97% 0.0 mm
17:33 6.1 °C 6.0 °C 1000.9 hPa SW 4.3 km/h 9.3 km/h 97% 0.0 mm
17:38 5.9 °C 6.0 °C 1000.9 hPa WSW 6.1 km/h 9.3 km/h 97% 0.0 mm
17:43 5.9 °C 6.0 °C 1000.9 hPa WSW 8.7 km/h 11.6 km/h 97% 0.0 mm
17:48 5.8 °C 6.0 °C 1001.9 hPa Calm   11.6 km/h 97% 0.0 mm
17:53 5.8 °C 6.0 °C 1001.9 hPa Calm   10.1 km/h 98% 0.0 mm
17:55 5.8 °C 6.0 °C 1001.9 hPa WSW 11.6 km/h 11.6 km/h 98% 0.0 mm
18:00 5.8 °C 6.0 °C 1000.9 hPa WSW 9.7 km/h 14.0 km/h 98% 0.0 mm
18:05 5.8 °C 6.0 °C 1000.9 hPa WSW 10.8 km/h 14.0 km/h 98% 0.0 mm
18:10 5.8 °C 6.0 °C 1000.9 hPa WSW 11.9 km/h 13.0 km/h 98% 0.0 mm
18:15 5.8 °C 6.0 °C 1000.9 hPa WSW 10.5 km/h 13.7 km/h 98% 0.0 mm
18:20 5.8 °C 6.0 °C 1000.9 hPa WSW 10.1 km/h 15.8 km/h 98% 0.0 mm
18:25 5.8 °C 6.0 °C 1000.9 hPa WSW 14.0 km/h 15.8 km/h 98% 0.0 mm
18:30 5.9 °C 6.0 °C 1000.9 hPa WSW 11.6 km/h 14.0 km/h 98% 0.0 mm
18:35 6.0 °C 6.0 °C 1000.9 hPa SW 11.9 km/h 15.8 km/h 98% 0.0 mm
18:40 6.0 °C 6.0 °C 1000.9 hPa West 16.6 km/h 20.9 km/h 98% 0.0 mm
18:45 6.2 °C 6.0 °C 1001.9 hPa West 16.3 km/h 23.3 km/h 98% 0.0 mm
18:50 6.2 °C 6.0 °C 1001.9 hPa West 17.2 km/h 23.3 km/h 98% 0.0 mm
18:55 6.3 °C 6.0 °C 1001.9 hPa West 14.0 km/h 27.7 km/h 96% 0.0 mm
19:00 6.3 °C 5.0 °C 1001.9 hPa West 20.9 km/h 27.7 km/h 92% 0.0 mm
19:05 6.2 °C 5.0 °C 1001.9 hPa West 15.8 km/h 25.6 km/h 91% 0.0 mm
19:10 6.2 °C 5.0 °C 1001.9 hPa West 17.2 km/h 25.6 km/h 88% 0.0 mm
19:15 6.1 °C 4.0 °C 1000.9 hPa West 16.6 km/h 24.8 km/h 86% 0.0 mm
19:20 6.1 °C 4.0 °C 1000.9 hPa West 12.2 km/h 20.1 km/h 85% 0.0 mm
19:25 5.9 °C 4.0 °C 1000.9 hPa West 13.0 km/h 20.1 km/h 85% 0.0 mm
19:30 5.8 °C 4.0 °C 1001.9 hPa West 11.9 km/h 20.1 km/h 84% 0.0 mm
19:35 5.8 °C 3.0 °C 1001.9 hPa West 9.3 km/h 20.1 km/h 82% 0.0 mm
19:40 5.8 °C 3.0 °C 1001.9 hPa West 12.6 km/h 20.1 km/h 82% 0.0 mm
19:45 5.8 °C 3.0 °C 1001.9 hPa West 12.6 km/h 20.1 km/h 82% 0.0 mm
19:50 5.7 °C 3.0 °C 1001.9 hPa West 8.7 km/h 16.9 km/h 82% 0.0 mm
19:56 5.7 °C 3.0 °C 1001.9 hPa West 13.7 km/h 17.7 km/h 82% 0.0 mm
20:01 5.6 °C 3.0 °C 1001.9 hPa West 5.8 km/h 17.7 km/h 82% 0.0 mm
20:06 5.4 °C 3.0 °C 1001.9 hPa West 1.4 km/h 17.2 km/h 83% 0.0 mm
20:11 5.2 °C 3.0 °C 1001.9 hPa Calm   10.5 km/h 83% 0.0 mm
20:16 5.1 °C 3.0 °C 1001.9 hPa WSW 5.8 km/h 8.7 km/h 83% 0.0 mm
20:21 5.1 °C 3.0 °C 1001.9 hPa West 5.8 km/h 12.6 km/h 82% 0.0 mm
20:26 5.0 °C 3.0 °C 1001.9 hPa WSW 5.8 km/h 12.6 km/h 82% 0.0 mm
20:31 4.9 °C 2.0 °C 1001.9 hPa West 8.7 km/h 12.2 km/h 82% 0.0 mm
20:36 4.7 °C 2.0 °C 1001.9 hPa West 9.0 km/h 10.5 km/h 81% 0.0 mm
20:41 4.4 °C 1.0 °C 1001.9 hPa Calm   10.5 km/h 81% 0.0 mm
20:46 4.2 °C 1.0 °C 1001.9 hPa Calm   7.9 km/h 81% 0.0 mm
20:51 3.9 °C 1.0 °C 1001.9 hPa Calm   6.4 km/h 82% 0.0 mm
20:56 3.7 °C 1.0 °C 1001.9 hPa Calm   6.9 km/h 82% 0.0 mm
21:01 3.5 °C 1.0 °C 1001.9 hPa Calm   6.9 km/h 83% 0.0 mm
21:06 3.4 °C 1.0 °C 1001.9 hPa Calm   6.9 km/h 83% 0.0 mm
21:11 3.2 °C 1.0 °C 1001.9 hPa WSW 7.6 km/h 7.6 km/h 84% 0.0 mm
21:16 3.0 °C 1.0 °C 1001.9 hPa Calm   9.0 km/h 84% 0.0 mm
21:21 3.0 °C 1.0 °C 1001.9 hPa West 7.9 km/h 9.0 km/h 85% 0.0 mm
21:26 3.0 °C 1.0 °C 1001.9 hPa West 7.9 km/h 10.1 km/h 85% 0.0 mm
21:31 3.1 °C 1.0 °C 1000.9 hPa West 7.9 km/h 10.5 km/h 86% 0.0 mm
21:36 3.3 °C 2.0 °C 1000.9 hPa West 1.4 km/h 14.0 km/h 87% 0.0 mm
21:42 3.3 °C 2.0 °C 1000.9 hPa WNW 9.7 km/h 14.0 km/h 87% 0.0 mm
21:47 3.4 °C 2.0 °C 1001.9 hPa West 6.4 km/h 13.0 km/h 87% 0.0 mm
21:52 3.4 °C 2.0 °C 1001.9 hPa WNW 4.0 km/h 12.2 km/h 87% 0.0 mm
21:57 3.3 °C 1.0 °C 1001.9 hPa Calm   9.3 km/h 86% 0.0 mm
22:02 3.1 °C 1.0 °C 1001.9 hPa Calm   9.3 km/h 86% 0.0 mm
22:07 3.0 °C 1.0 °C 1001.9 hPa Calm   7.6 km/h 86% 0.0 mm
22:12 2.8 °C 1.0 °C 1001.9 hPa Calm   6.9 km/h 86% 0.0 mm
22:17 2.7 °C 1.0 °C 1001.9 hPa Calm   6.1 km/h 87% 0.0 mm
22:22 2.6 °C 1.0 °C 1001.9 hPa Calm   3.5 km/h 87% 0.0 mm
22:27 2.4 °C 1.0 °C 1001.9 hPa Calm   2.1 km/h 87% 0.0 mm
22:32 2.3 °C 1.0 °C 1000.9 hPa Calm   2.1 km/h 87% 0.0 mm
22:37 2.0 °C 1.0 °C 1000.9 hPa Calm     87% 0.0 mm
22:42 1.8 °C 0.0 °C 1000.9 hPa Calm     87% 0.0 mm
22:47 1.8 °C 0.0 °C 1001.9 hPa Calm     88% 0.0 mm
22:52 2.0 °C 1.0 °C 1001.9 hPa Calm   8.7 km/h 89% 0.0 mm
22:57 2.0 °C 1.0 °C 1001.9 hPa Calm   8.7 km/h 89% 0.0 mm
23:02 2.1 °C 1.0 °C 1001.9 hPa WSW 6.1 km/h 9.0 km/h 90% 0.0 mm
23:07 2.1 °C 1.0 °C 1001.9 hPa WSW 10.1 km/h 10.1 km/h 90% 0.0 mm
23:12 2.2 °C 1.0 °C 1001.9 hPa WSW 7.6 km/h 10.8 km/h 91% 0.0 mm
23:17 2.3 °C 1.0 °C 1000.9 hPa WSW 10.1 km/h 10.8 km/h 91% 0.0 mm
23:22 2.3 °C 1.0 °C 1000.9 hPa Calm   10.1 km/h 91% 0.0 mm
23:27 2.2 °C 1.0 °C 1000.9 hPa Calm   8.7 km/h 91% 0.0 mm
23:32 2.1 °C 1.0 °C 1000.9 hPa Calm     91% 0.0 mm
23:37 2.1 °C 1.0 °C 1000.9 hPa WSW 6.9 km/h 10.1 km/h 91% 0.0 mm
23:42 2.1 °C 1.0 °C 1000.9 hPa Calm   10.1 km/h 91% 0.0 mm
23:47 2.1 °C 1.0 °C 1000.9 hPa Calm   10.1 km/h 92% 0.0 mm
23:53 2.2 °C 1.0 °C 1000.9 hPa West 7.9 km/h 10.1 km/h 92% 0.0 mm
23:58 2.2 °C 1.0 °C 1000.9 hPa West 5.0 km/h 8.7 km/h 92% 0.0 mm
Données Historique de Météo Turbie

Mise a jour : 24/05/2018 10:22:14
Généré par Cumulus 1.9.4 (1099)